Location: Pian di Sc�
(43.6333°N, 11.5500°E)
Time: 18:29:31
(UTC+00:00)

Timation 1 Rocket - Pass Details

Date: 07 August 2020
Orbit: 898 x 909 km, 70.0° (Epoch: 19 September)

Event Time Altitude Azimuth Distance (km) Brightness Sun altitude
Exits shadow 02:22:57 23° 201° (SSW) 1,799 5.4 -16.9°
Maximum altitude 02:26:47 84° 115° (ESE) 909 4.3 -16.4°
Drops below altitude 10° 02:32:46 10° 28° (NNE) 2,582 7.9 -15.6°
Sets 02:35:16 0° 28° (NNE) 3,527 8.8 -15.2°
